Weather History for KFZY - February, 2013

Change the Weather History Date:

Saturday, February 16, 2013

  Actual Average (KSYR) Record (KSYR)
Temperature  
Mean Temperature 22 °F 26 °F  
Max Temperature 26 °F 34 °F 63 °F (1954)
Min Temperature 17 °F 18 °F -17 °F (2015)
Degree Days  
Heating Degree Days 44 39  
Month to date heating degree days 643  
Since 1 July heating degree days 4379  
Cooling Degree Days 0 0  
Month to date cooling degree days 0  
Year to date cooling degree days 0  
Moisture  
Dew Point 14 °F    
Average Humidity 69    
Maximum Humidity 88    
Minimum Humidity 44    
Precipitation  
Precipitation 0.03 in 0.07 in 0.99 in (1909)
Month to date precipitation 1.14  
Year to date precipitation 3.64  
Snow  
Snow 0.00 in 0.90 in 11.10 in (1958)
Month to date snowfall 14.9  
Since 1 July snowfall 91.5  
Snow Depth -    
Sea Level Pressure  
Sea Level Pressure 30.02 in    
Wind  
Wind Speed 8 mph (NNW)    
Max Wind Speed 10 mph    
Max Gust Speed 20 mph    
Visibility 7 miles    
Events Fog , Snow    
T = Trace of Precipitation, MM = Missing Value Source: NWS Daily Summary

Daily Weather History Graph

Daily Weather History Graph

Search for Another Location

Airport or City:

Trip Planner

Search our weather history database for the weather conditions in past years. The results will help you decide how hot, cold, wet, or windy it might be!

Date:

Astronomy

Feb. 16, 2013 Rise Set
Actual Time 7:01 AM EST 5:37 PM EST
Civil Twilight 6:32 AM EST 6:07 PM EST
Nautical Twilight 5:59 AM EST 6:40 PM EST
Astronomical Twilight 5:26 AM EST 7:13 PM EST
Moon 10:00 AM EST (2/16) No Moon Set
Length of Visible Light 11h 34m
Length of Day
10h 36m
Waxing Crescent, 39% of the Moon is Illuminated
Feb 16
Waxing Crescent
Feb 17
First Quarter
Feb 25
Full
Mar 4
Last Quarter
Mar 11
New

Hourly Weather History & Observations

Time (EST) Temp. Windchill Dew Point Humidity Pressure Visibility Wind Dir Wind Speed Gust Speed Precip Events Conditions
12:03 AM 26.6 °F 16.8 °F 19.4 °F 74% 30.02 in 2.5 mi West 10.4 mph 19.6 mph 0.00 in Snow Light Snow
12:11 AM 26.6 °F 17.5 °F 21.2 °F 80% 30.02 in 1.2 mi West 9.2 mph - 0.00 in Snow Light Snow
12:16 AM 26.6 °F 18.2 °F 21.2 °F 80% 30.02 in 1.0 mi West 8.1 mph - 0.01 in Snow Light Snow
12:25 AM 26.6 °F 18.2 °F 21.2 °F 80% 30.02 in 0.5 mi West 8.1 mph - 0.02 in Fog , Snow Snow
12:35 AM 26.6 °F 18.2 °F 23.0 °F 86% 30.02 in 1.2 mi WNW 8.1 mph - 0.02 in Snow Light Snow
12:43 AM 26.6 °F 19.1 °F 21.2 °F 80% 30.02 in 2.5 mi WNW 6.9 mph - 0.02 in Snow Light Snow
12:50 AM 26.6 °F 18.2 °F 21.2 °F 80% 30.02 in 3.0 mi WNW 8.1 mph - 0.02 in Snow Light Snow
12:54 AM 26.1 °F 19.4 °F 23.0 °F 88% 30.04 in 3.0 mi WNW 5.8 mph - 0.02 in Snow Light Snow
12:56 AM 26.6 °F 20.0 °F 23.0 °F 86% 30.02 in 2.5 mi WNW 5.8 mph - 0.00 in Snow Light Snow
1:12 AM 26.6 °F 17.5 °F 21.2 °F 80% 30.03 in 3.0 mi NW 9.2 mph - 0.00 in Snow Light Snow
1:19 AM 26.6 °F 19.1 °F 21.2 °F 80% 30.02 in 3.0 mi NW 6.9 mph - 0.00 in Snow Light Snow
1:54 AM 25.0 °F 17.1 °F 19.0 °F 78% 30.04 in 5.0 mi NNW 6.9 mph - 0.01 in Snow Light Snow
2:54 AM 24.1 °F 16.0 °F 18.0 °F 77% 30.04 in 8.0 mi NNW 6.9 mph - 0.00 in Snow Light Snow
3:54 AM 24.1 °F 16.0 °F 17.1 °F 75% 30.04 in 5.0 mi NNW 6.9 mph - 0.00 in Snow Light Snow
4:54 AM 23.0 °F 12.4 °F 16.0 °F 74% 30.04 in 9.0 mi NNW 10.4 mph - 0.00 in Snow Light Snow
5:27 AM 21.2 °F 10.1 °F 15.8 °F 80% 30.02 in 9.0 mi NNW 10.4 mph - 0.00 in Snow Light Snow
5:54 AM 21.9 °F 14.5 °F 15.1 °F 75% 30.04 in 10.0 mi NNW 5.8 mph - 0.00 in   Overcast
6:23 AM 21.2 °F 12.6 °F 14.0 °F 74% 30.02 in 10.0 mi NNW 6.9 mph - N/A   Overcast
6:30 AM 21.2 °F 10.1 °F 14.0 °F 74% 30.03 in 10.0 mi North 10.4 mph - N/A   Overcast
6:54 AM 21.9 °F 14.5 °F 12.9 °F 68% 30.05 in 10.0 mi NNW 5.8 mph - N/A   Overcast
7:19 AM 19.4 °F 10.4 °F 12.2 °F 74% 30.04 in 10.0 mi NNW 6.9 mph - N/A   Overcast
7:45 AM 19.4 °F 11.5 °F 10.4 °F 68% 30.04 in 10.0 mi NNW 5.8 mph - N/A   Scattered Clouds
7:54 AM 19.0 °F 11.1 °F 10.9 °F 71% 30.06 in 10.0 mi NW 5.8 mph - N/A   Partly Cloudy
8:54 AM 21.0 °F 13.4 °F 12.0 °F 68% 30.06 in 10.0 mi NNW 5.8 mph - N/A   Clear
9:54 AM 23.0 °F 13.9 °F 12.0 °F 63% 30.06 in 10.0 mi NNW 8.1 mph - N/A   Clear
10:54 AM 24.1 °F 16.0 °F 12.9 °F 62% 30.06 in 10.0 mi NNW 6.9 mph - N/A   Clear
11:54 AM 26.1 °F 19.4 °F 10.9 °F 53% 30.03 in 10.0 mi NNE 5.8 mph - N/A   Clear
12:54 PM 26.1 °F 20.5 °F 10.0 °F 51% 30.01 in 10.0 mi NW 4.6 mph - N/A   Clear
1:54 PM 26.1 °F 17.6 °F 10.0 °F 51% 29.99 in 10.0 mi North 8.1 mph - N/A   Overcast
2:54 PM 26.1 °F 17.6 °F 7.0 °F 44% 29.99 in 10.0 mi North 8.1 mph - N/A   Clear
3:54 PM 25.0 °F 18.1 °F 8.1 °F 49% 29.99 in 10.0 mi NNE 5.8 mph - N/A   Clear
4:54 PM 23.0 °F 14.7 °F 9.0 °F 55% 30.00 in 10.0 mi NNE 6.9 mph - N/A   Clear
5:54 PM 19.9 °F 12.1 °F 8.1 °F 60% 30.00 in 10.0 mi North 5.8 mph - N/A   Clear
6:54 PM 18.0 °F - 8.1 °F 65% 30.01 in 10.0 mi Calm Calm - N/A   Clear
7:54 PM 17.1 °F 7.6 °F 8.1 °F 68% 30.00 in 10.0 mi NNE 6.9 mph - N/A   Clear
8:54 PM 19.0 °F 12.3 °F 6.1 °F 57% 29.98 in 10.0 mi ENE 4.6 mph - N/A   Clear
9:54 PM 17.1 °F 10.0 °F 5.0 °F 59% 29.98 in 10.0 mi NNE 4.6 mph - N/A   Scattered Clouds
10:54 PM 18.0 °F 8.7 °F 3.9 °F 54% 29.95 in 10.0 mi NE 6.9 mph - N/A   Partly Cloudy
11:54 PM 17.1 °F 11.7 °F 3.0 °F 54% 29.93 in 10.0 mi NE 3.5 mph - N/A   Clear